Data No, UTC Date,UTC Time,Latitude,Longitude,Course(deg),Temp(degC),Sal(psu)
531,2018/4/5,8:50,42-36.73N,141-36.82E,207,4.053,32.2106
532,2018/4/5,8:51,42-36.48N,141-36.78E,177,4.334,32.507
533,2018/4/5,8:52,42-36.22N,141-36.89E,158,3.965,32.4628
534,2018/4/5,8:53,42-35.95N,141-37.07E,154,3.711,32.5047
535,2018/4/5,8:54,42-35.67N,141-37.25E,154,3.666,32.6472
536,2018/4/5,8:55,42-35.39N,141-37.43E,154,3.65,32.6958
537,2018/4/5,8:56,42-35.10N,141-37.62E,154,3.585,32.6994
538,2018/4/5,8:57,42-34.80N,141-37.80E,155,3.589,32.6474
539,2018/4/5,8:58,42-34.50N,141-37.98E,156,3.656,32.5558
540,2018/4/5,8:59,42-34.20N,141-38.16E,156,3.711,32.5194
541,2018/4/5,9:00,42-33.89N,141-38.35E,156,3.727,32.5082
542,2018/4/5,9:01,42-33.57N,141-38.54E,156,3.681,32.5091
543,2018/4/5,9:02,42-33.26N,141-38.72E,156,3.7,32.4969
544,2018/4/5,9:03,42-32.94N,141-38.91E,156,3.799,32.4813
545,2018/4/5,9:04,42-32.63N,141-39.10E,156,3.887,32.4582
546,2018/4/5,9:05,42-32.30N,141-39.29E,156,3.953,32.4426
547,2018/4/5,9:06,42-31.97N,141-39.49E,156,4.043,32.4311
548,2018/4/5,9:07,42-31.65N,141-39.68E,156,4.122,32.4022
549,2018/4/5,9:08,42-31.32N,141-39.87E,156,4.211,32.3497
550,2018/4/5,9:09,42-30.99N,141-40.06E,156,4.203,32.2667
551,2018/4/5,9:10,42-30.65N,141-40.26E,156,4.201,32.1964
552,2018/4/5,9:11,42-30.32N,141-40.46E,156,4.194,32.1491
553,2018/4/5,9:12,42-29.98N,141-40.65E,156,4.167,32.1355
554,2018/4/5,9:13,42-29.66N,141-40.88E,150,4.129,32.1491
555,2018/4/5,9:14,42-29.34N,141-41.14E,147,4.111,32.1734
556,2018/4/5,9:15,42-29.03N,141-41.42E,144,4.086,32.1914
557,2018/4/5,9:16,42-28.75N,141-41.75E,136,4.053,32.2111
558,2018/4/5,9:17,42-28.51N,141-42.14E,127,3.945,32.2364
559,2018/4/5,9:18,42-28.29N,141-42.56E,125,3.931,32.2738
560,2018/4/5,9:19,42-28.06N,141-42.99E,124,3.954,32.2752
561,2018/4/5,9:20,42-27.84N,141-43.43E,124,4.011,32.2636
562,2018/4/5,9:21,42-27.62N,141-43.86E,125,4.054,32.2414
563,2018/4/5,9:22,42-27.42N,141-44.30E,119,4.052,32.2261
564,2018/4/5,9:23,42-27.23N,141-44.76E,118,4.075,32.2243
565,2018/4/5,9:24,42-27.05N,141-45.23E,117,4.096,32.222
566,2018/4/5,9:25,42-26.87N,141-45.70E,117,4.115,32.2291
567,2018/4/5,9:26,42-26.69N,141-46.18E,117,4.13,32.241
568,2018/4/5,9:27,42-26.50N,141-46.65E,118,4.137,32.2515
569,2018/4/5,9:28,42-26.32N,141-47.12E,117,4.108,32.2562
570,2018/4/5,9:29,42-26.14N,141-47.58E,118,4.025,32.2688
571,2018/4/5,9:30,42-25.96N,141-48.04E,118,3.832,32.3012
572,2018/4/5,9:31,42-25.77N,141-48.50E,118,3.774,32.3346
573,2018/4/5,9:32,42-25.59N,141-48.96E,118,3.813,32.3409
574,2018/4/5,9:33,42-25.40N,141-49.41E,118,3.859,32.3434
575,2018/4/5,9:34,42-25.22N,141-49.88E,118,3.861,32.3336
576,2018/4/5,9:35,42-25.03N,141-50.33E,119,3.868,32.3239
577,2018/4/5,9:36,42-24.84N,141-50.78E,119,3.848,32.3228
578,2018/4/5,9:37,42-24.65N,141-51.23E,120,3.853,32.3182
579,2018/4/5,9:38,42-24.45N,141-51.69E,120,3.882,32.3031
580,2018/4/5,9:39,42-24.26N,141-52.14E,119,3.912,32.291
581,2018/4/5,9:40,42-24.06N,141-52.61E,119,3.87,32.2764
582,2018/4/5,9:41,42-23.87N,141-53.07E,119,3.815,32.2651
583,2018/4/5,9:42,42-23.68N,141-53.51E,120,3.791,32.2666
584,2018/4/5,9:43,42-23.48N,141-53.97E,120,3.759,32.2711
585,2018/4/5,9:44,42-23.28N,141-54.44E,119,3.682,32.2804
586,2018/4/5,9:45,42-23.09N,141-54.90E,120,3.594,32.2908
587,2018/4/5,9:46,42-22.89N,141-55.35E,120,3.54,32.305
588,2018/4/5,9:47,42-22.70N,141-55.81E,119,3.508,32.3173
589,2018/4/5,9:48,42-22.50N,141-56.27E,119,3.425,32.3247
590,2018/4/5,9:49,42-22.31N,141-56.73E,120,3.369,32.3326
591,2018/4/5,9:50,42-22.11N,141-57.19E,119,3.314,32.3415
592,2018/4/5,9:51,42-21.92N,141-57.64E,119,3.361,32.3428
593,2018/4/5,9:52,42-21.72N,141-58.09E,120,3.452,32.3215
594,2018/4/5,9:53,42-21.53N,141-58.55E,119,3.441,32.2991
595,2018/4/5,9:54,42-21.33N,141-59.00E,119,3.572,32.2873
596,2018/4/5,9:55,42-21.13N,141-59.47E,119,3.698,32.2684
597,2018/4/5,9:56,42-20.94N,141-59.93E,119,3.7,32.2377
598,2018/4/5,9:57,42-20.74N,142-00.39E,119,3.7,32.222
599,2018/4/5,9:58,42-20.55N,142-00.84E,120,3.695,32.2055
600,2018/4/5,9:59,42-20.35N,142-01.31E,120,3.682,32.1948
601,2018/4/5,10:00,42-20.15N,142-01.77E,120,3.683,32.1868
602,2018/4/5,10:01,42-19.95N,142-02.23E,120,3.692,32.1874
603,2018/4/5,10:02,42-19.75N,142-02.68E,120,3.665,32.1904
604,2018/4/5,10:03,42-19.56N,142-03.14E,119,3.637,32.2146
605,2018/4/5,10:04,42-19.36N,142-03.59E,119,3.674,32.2573
606,2018/4/5,10:05,42-19.17N,142-04.05E,120,3.687,32.2537
607,2018/4/5,10:06,42-18.97N,142-04.52E,119,3.645,32.2445
608,2018/4/5,10:07,42-18.77N,142-04.98E,119,3.603,32.2883
609,2018/4/5,10:08,42-18.58N,142-05.44E,118,3.659,32.3731
610,2018/4/5,10:09,42-18.41N,142-05.90E,115,3.473,32.5131
611,2018/4/5,10:10,42-18.24N,142-06.38E,114,3.332,32.6148
612,2018/4/5,10:11,42-18.08N,142-06.86E,113,3.173,32.6287
613,2018/4/5,10:12,42-17.92N,142-07.34E,114,2.826,32.6095
614,2018/4/5,10:13,42-17.76N,142-07.83E,114,2.745,32.5481
615,2018/4/5,10:14,42-17.58N,142-08.30E,118,2.869,32.4932
616,2018/4/5,10:15,42-17.40N,142-08.76E,119,3.029,32.4561
617,2018/4/5,10:16,42-17.20N,142-09.22E,119,3.141,32.4254
618,2018/4/5,10:17,42-17.01N,142-09.68E,120,3.221,32.4031
619,2018/4/5,10:18,42-16.81N,142-10.15E,119,3.249,32.3833
620,2018/4/5,10:19,42-16.62N,142-10.61E,119,3.332,32.3697
621,2018/4/5,10:20,42-16.43N,142-11.07E,119,3.385,32.3306
622,2018/4/5,10:21,42-16.23N,142-11.53E,119,3.491,32.2522
623,2018/4/5,10:22,42-16.04N,142-11.99E,119,3.552,32.2054
624,2018/4/5,10:23,42-15.84N,142-12.45E,120,3.542,32.1695
625,2018/4/5,10:24,42-15.64N,142-12.93E,119,3.529,32.142
626,2018/4/5,10:25,42-15.45N,142-13.39E,119,3.525,32.1281
627,2018/4/5,10:26,42-15.25N,142-13.84E,120,3.54,32.1217
628,2018/4/5,10:27,42-15.05N,142-14.30E,120,3.551,32.1218
629,2018/4/5,10:28,42-14.86N,142-14.76E,120,3.537,32.1219
630,2018/4/5,10:29,42-14.66N,142-15.22E,120,3.484,32.1216
631,2018/4/5,10:30,42-14.46N,142-15.69E,119,3.377,32.1257
632,2018/4/5,10:31,42-14.27N,142-16.15E,119,3.289,32.1363
633,2018/4/5,10:32,42-14.07N,142-16.61E,119,3.209,32.1549
634,2018/4/5,10:33,42-13.88N,142-17.06E,120,3.132,32.1777
635,2018/4/5,10:34,42-13.69N,142-17.52E,119,3.055,32.2015
636,2018/4/5,10:35,42-13.49N,142-17.98E,120,2.987,32.2266
637,2018/4/5,10:36,42-13.29N,142-18.44E,120,2.952,32.254
638,2018/4/5,10:37,42-13.08N,142-18.92E,120,2.945,32.2762
639,2018/4/5,10:38,42-12.88N,142-19.38E,120,2.93,32.2881
640,2018/4/5,10:39,42-12.69N,142-19.85E,119,2.909,32.2927
641,2018/4/5,10:40,42-12.49N,142-20.32E,119,2.898,32.2999
642,2018/4/5,10:41,42-12.30N,142-20.78E,119,2.889,32.314
643,2018/4/5,10:42,42-12.10N,142-21.24E,120,2.904,32.3244
644,2018/4/5,10:43,42-11.90N,142-21.71E,119,2.89,32.3303
645,2018/4/5,10:44,42-11.71N,142-22.17E,119,2.875,32.3396
646,2018/4/5,10:45,42-11.52N,142-22.63E,119,2.878,32.351
647,2018/4/5,10:46,42-11.32N,142-23.09E,119,2.873,32.348
648,2018/4/5,10:47,42-11.12N,142-23.55E,120,2.976,32.3428
649,2018/4/5,10:48,42-10.92N,142-24.02E,120,3.039,32.3496
650,2018/4/5,10:49,42-10.71N,142-24.47E,121,3.057,32.3485
651,2018/4/5,10:50,42-10.51N,142-24.93E,119,3.054,32.3386
652,2018/4/5,10:51,42-10.32N,142-25.39E,119,3.063,32.3414
653,2018/4/5,10:52,42-10.12N,142-25.85E,120,3.052,32.3595
654,2018/4/5,10:53,42-09.92N,142-26.30E,120,3.001,32.3639
655,2018/4/5,10:54,42-09.72N,142-26.76E,121,2.93,32.3602
656,2018/4/5,10:55,42-09.52N,142-27.22E,119,2.811,32.3561
657,2018/4/5,10:56,42-09.32N,142-27.68E,119,2.697,32.3445
658,2018/4/5,10:57,42-09.13N,142-28.13E,119,2.56,32.339
659,2018/4/5,10:58,42-08.93N,142-28.58E,120,2.511,32.3427
660,2018/4/5,10:59,42-08.74N,142-29.04E,120,2.531,32.3447
661,2018/4/5,11:00,42-08.54N,142-29.50E,120,2.544,32.3442
662,2018/4/5,11:01,42-08.35N,142-29.94E,119,2.51,32.3416
663,2018/4/5,11:02,42-08.15N,142-30.38E,120,2.456,32.3306
664,2018/4/5,11:03,42-07.96N,142-30.83E,120,2.434,32.322
665,2018/4/5,11:04,42-07.76N,142-31.28E,120,2.395,32.3125
666,2018/4/5,11:05,42-07.56N,142-31.74E,120,2.31,32.3126
667,2018/4/5,11:06,42-07.36N,142-32.19E,120,2.309,32.3167
668,2018/4/5,11:07,42-07.16N,142-32.63E,121,2.312,32.3294
669,2018/4/5,11:08,42-06.96N,142-33.09E,121,2.244,32.3494
670,2018/4/5,11:09,42-06.76N,142-33.54E,120,2.181,32.3702
671,2018/4/5,11:10,42-06.56N,142-33.99E,120,2.125,32.3847
672,2018/4/5,11:11,42-06.36N,142-34.45E,120,2.096,32.4015
673,2018/4/5,11:12,42-06.16N,142-34.89E,120,2.05,32.418
674,2018/4/5,11:13,42-05.96N,142-35.34E,120,1.998,32.4388
675,2018/4/5,11:14,42-05.76N,142-35.80E,119,1.901,32.4622
676,2018/4/5,11:15,42-05.58N,142-36.24E,118,1.866,32.4752
677,2018/4/5,11:16,42-05.39N,142-36.69E,119,2.025,32.4766
678,2018/4/5,11:17,42-05.20N,142-37.14E,118,2.094,32.4594
679,2018/4/5,11:18,42-05.01N,142-37.60E,118,2.148,32.4425
680,2018/4/5,11:19,42-04.83N,142-38.05E,118,2.257,32.4299
681,2018/4/5,11:20,42-04.64N,142-38.51E,118,2.388,32.4153
682,2018/4/5,11:21,42-04.46N,142-38.95E,118,2.61,32.4057
683,2018/4/5,11:22,42-04.28N,142-39.41E,117,2.758,32.4128
684,2018/4/5,11:23,42-04.10N,142-39.86E,117,2.845,32.4044
685,2018/4/5,11:24,42-03.92N,142-40.31E,117,2.958,32.3924
686,2018/4/5,11:25,42-03.74N,142-40.77E,117,3.026,32.3761
687,2018/4/5,11:26,42-03.56N,142-41.22E,118,3.013,32.3618
688,2018/4/5,11:27,42-03.39N,142-41.67E,117,2.947,32.3604
689,2018/4/5,11:28,42-03.21N,142-42.11E,118,2.879,32.3701
690,2018/4/5,11:29,42-03.02N,142-42.57E,118,2.803,32.3781
691,2018/4/5,11:30,42-02.85N,142-43.03E,116,2.768,32.3865
692,2018/4/5,11:31,42-02.68N,142-43.48E,116,2.741,32.3904
693,2018/4/5,11:32,42-02.50N,142-43.94E,116,2.667,32.3864
694,2018/4/5,11:33,42-02.33N,142-44.39E,117,2.568,32.3824
695,2018/4/5,11:34,42-02.15N,142-44.84E,117,2.317,32.3848
696,2018/4/5,11:35,42-01.98N,142-45.29E,116,2.059,32.3969
697,2018/4/5,11:36,42-01.80N,142-45.74E,118,1.98,32.4103
698,2018/4/5,11:37,42-01.62N,142-46.19E,117,1.97,32.4134
699,2018/4/5,11:38,42-01.45N,142-46.64E,117,1.977,32.4116
700,2018/4/5,11:39,42-01.27N,142-47.11E,118,1.944,32.4125
701,2018/4/5,11:40,42-01.09N,142-47.55E,118,1.953,32.4154
702,2018/4/5,11:41,42-00.91N,142-48.00E,117,1.957,32.4177
703,2018/4/5,11:42,42-00.72N,142-48.51E,117,1.894,32.4209
704,2018/4/5,11:43,42-00.56N,142-48.98E,113,1.822,32.4265
705,2018/4/5,11:44,42-00.42N,142-49.44E,113,1.779,32.4279
706,2018/4/5,11:45,42-00.27N,142-49.90E,112,1.761,32.429
707,2018/4/5,11:46,42-00.13N,142-50.37E,112,1.743,32.4304
708,2018/4/5,11:47,41-59.98N,142-50.84E,112,1.745,32.4332
709,2018/4/5,11:48,41-59.83N,142-51.30E,113,1.824,32.4363
710,2018/4/5,11:49,41-59.69N,142-51.76E,112,1.922,32.4369
711,2018/4/5,11:50,41-59.54N,142-52.23E,113,2.067,32.4299
712,2018/4/5,11:51,41-59.39N,142-52.70E,112,2.118,32.4207
713,2018/4/5,11:52,41-59.25N,142-53.17E,112,2.183,32.4099
714,2018/4/5,11:53,41-59.11N,142-53.64E,112,2.2,32.3954
715,2018/4/5,11:54,41-58.96N,142-54.11E,112,2.219,32.3877
716,2018/4/5,11:55,41-58.82N,142-54.58E,112,2.234,32.3823
717,2018/4/5,11:56,41-58.67N,142-55.06E,112,2.228,32.3781
718,2018/4/5,11:57,41-58.52N,142-55.53E,113,2.209,32.3755
719,2018/4/5,11:58,41-58.38N,142-55.99E,113,2.194,32.3749
720,2018/4/5,11:59,41-58.25N,142-56.40E,113,2.189,32.3769
721,2018/4/5,12:00,41-58.10N,142-56.88E,112,2.176,32.3821
722,2018/4/5,12:01,41-57.96N,142-57.35E,112,2.148,32.3896
723,2018/4/5,12:02,41-57.81N,142-57.82E,112,2.058,32.398
724,2018/4/5,12:03,41-57.67N,142-58.28E,113,1.989,32.4082
725,2018/4/5,12:04,41-57.52N,142-58.74E,113,1.949,32.4099
726,2018/4/5,12:05,41-57.36N,142-59.20E,114,1.894,32.4058
727,2018/4/5,12:06,41-57.21N,142-59.66E,114,1.888,32.395
728,2018/4/5,12:07,41-57.05N,143-00.13E,114,1.907,32.3899
729,2018/4/5,12:08,41-56.89N,143-00.60E,114,1.906,32.3934
730,2018/4/5,12:09,41-56.74N,143-01.06E,114,1.885,32.3933
731,2018/4/5,12:10,41-56.58N,143-01.53E,114,1.888,32.3898
732,2018/4/5,12:11,41-56.42N,143-01.98E,114,1.948,32.3875
733,2018/4/5,12:12,41-56.27N,143-02.45E,114,1.981,32.3948
734,2018/4/5,12:13,41-56.08N,143-02.99E,114,2.028,32.4042
735,2018/4/5,12:14,41-55.95N,143-03.40E,114,2.045,32.4101
736,2018/4/5,12:15,41-55.79N,143-03.86E,113,2.034,32.4087
737,2018/4/5,12:16,41-55.63N,143-04.33E,115,2.013,32.4082
738,2018/4/5,12:17,41-55.48N,143-04.79E,114,2.008,32.4082
739,2018/4/5,12:18,41-55.32N,143-05.25E,113,2,32.4068
740,2018/4/5,12:19,41-55.17N,143-05.72E,113,1.982,32.406
741,2018/4/5,12:20,41-55.01N,143-06.19E,114,1.972,32.4065
742,2018/4/5,12:21,41-54.86N,143-06.66E,113,1.985,32.4075
743,2018/4/5,12:22,41-54.70N,143-07.12E,114,1.978,32.4054
744,2018/4/5,12:23,41-54.53N,143-07.59E,114,1.922,32.4021
745,2018/4/5,12:24,41-54.37N,143-08.06E,115,1.876,32.4049
746,2018/4/5,12:25,41-54.22N,143-08.52E,114,1.814,32.4112
747,2018/4/5,12:26,41-54.06N,143-08.98E,114,1.762,32.4169
748,2018/4/5,12:27,41-53.90N,143-09.45E,114,1.731,32.4224
749,2018/4/5,12:28,41-53.75N,143-09.92E,112,1.701,32.4272
750,2018/4/5,12:29,41-53.59N,143-10.40E,113,1.714,32.4296
751,2018/4/5,12:30,41-53.44N,143-10.86E,113,1.72,32.4169
752,2018/4/5,12:31,41-53.28N,143-11.32E,114,1.701,32.4123
753,2018/4/5,12:32,41-53.14N,143-11.78E,111,1.593,32.418
754,2018/4/5,12:33,41-53.01N,143-12.25E,110,1.368,32.4305
755,2018/4/5,12:34,41-52.87N,143-12.73E,109,1.314,32.4469
756,2018/4/5,12:35,41-52.74N,143-13.22E,109,1.238,32.4603
757,2018/4/5,12:36,41-52.62N,143-13.70E,110,1.187,32.4666
758,2018/4/5,12:37,41-52.49N,143-14.16E,109,1.169,32.4667
759,2018/4/5,12:38,41-52.39N,143-14.65E,101,1.14,32.4667
760,2018/4/5,12:39,41-52.35N,143-15.15E,93,1.161,32.4477
761,2018/4/5,12:40,41-52.35N,143-15.63E,88,1.174,32.4198
762,2018/4/5,12:41,41-52.36N,143-16.13E,88,1.27,32.3886
763,2018/4/5,12:42,41-52.37N,143-16.63E,87,1.306,32.3556
764,2018/4/5,12:43,41-52.39N,143-17.14E,87,1.316,32.3297
765,2018/4/5,12:44,41-52.41N,143-17.65E,87,1.302,32.3373
766,2018/4/5,12:45,41-52.45N,143-18.14E,79,1.332,32.3432
767,2018/4/5,12:46,41-52.57N,143-18.62E,70,1.359,32.35
768,2018/4/5,12:47,41-52.72N,143-19.08E,62,1.37,32.3475
769,2018/4/5,12:48,41-52.91N,143-19.51E,57,1.37,32.3405
770,2018/4/5,12:49,41-53.12N,143-19.92E,53,1.367,32.3357
771,2018/4/5,12:50,41-53.35N,143-20.32E,51,1.313,32.3364
772,2018/4/5,12:51,41-53.63N,143-20.77E,50,1.302,32.341
773,2018/4/5,12:52,41-53.86N,143-21.16E,51,1.301,32.347
774,2018/4/5,12:53,41-54.10N,143-21.55E,49,1.312,32.3407
775,2018/4/5,12:54,41-54.37N,143-21.91E,45,1.31,32.3417
776,2018/4/5,12:55,41-54.65N,143-22.25E,41,1.333,32.3528
777,2018/4/5,12:56,41-54.95N,143-22.56E,35,1.422,32.3765
778,2018/4/5,12:57,41-55.27N,143-22.84E,33,1.485,32.3635
779,2018/4/5,12:58,41-55.58N,143-23.11E,32,1.433,32.3351
780,2018/4/5,12:59,41-55.85N,143-23.34E,33,1.34,32.3324
781,2018/4/5,13:00,41-56.16N,143-23.62E,33,1.25,32.3274
782,2018/4/5,13:01,41-56.47N,143-23.90E,34,1.209,32.3251
783,2018/4/5,13:02,41-56.78N,143-24.19E,33,1.178,32.3198
784,2018/4/5,13:03,41-57.10N,143-24.46E,32,1.212,32.3176
785,2018/4/5,13:04,41-57.42N,143-24.74E,33,1.442,32.2809
786,2018/4/5,13:05,41-57.73N,143-25.01E,32,1.557,32.1603
787,2018/4/5,13:06,41-58.04N,143-25.28E,32,1.635,32.0154
788,2018/4/5,13:07,41-58.37N,143-25.55E,32,1.703,31.9595
789,2018/4/5,13:08,41-58.68N,143-25.83E,33,1.708,31.9025
790,2018/4/5,13:09,41-58.99N,143-26.10E,33,1.703,31.8679
791,2018/4/5,13:10,41-59.31N,143-26.38E,33,1.757,31.8792
792,2018/4/5,13:11,41-59.63N,143-26.66E,33,1.85,31.8418
793,2018/4/5,13:12,41-59.95N,143-26.93E,32,1.821,31.7463
794,2018/4/5,13:13,42-00.27N,143-27.21E,32,1.741,31.7573
795,2018/4/5,13:14,42-00.58N,143-27.47E,31,1.862,31.7841
796,2018/4/5,13:15,42-00.90N,143-27.73E,31,1.825,31.8469
797,2018/4/5,13:16,42-01.23N,143-28.00E,31,1.853,31.8926
798,2018/4/5,13:17,42-01.55N,143-28.26E,31,1.792,31.8731
799,2018/4/5,13:18,42-01.87N,143-28.52E,31,1.833,31.9545
800,2018/4/5,13:19,42-02.19N,143-28.79E,30,1.852,31.9352
801,2018/4/5,13:20,42-02.52N,143-29.05E,31,1.867,31.9147
802,2018/4/5,13:21,42-02.85N,143-29.31E,30,1.87,31.8992
803,2018/4/5,13:22,42-03.17N,143-29.57E,30,1.74,31.9064
804,2018/4/5,13:23,42-03.50N,143-29.83E,31,1.67,31.9873
805,2018/4/5,13:24,42-03.83N,143-30.09E,30,1.709,32.0392
806,2018/4/5,13:25,42-04.15N,143-30.35E,30,1.613,32.0121
807,2018/4/5,13:26,42-04.48N,143-30.61E,30,1.745,32.0544
808,2018/4/5,13:27,42-04.80N,143-30.87E,30,1.744,32.0191
809,2018/4/5,13:28,42-05.14N,143-31.13E,30,1.738,32.0297
810,2018/4/5,13:29,42-05.46N,143-31.39E,30,1.734,32.0566
811,2018/4/5,13:30,42-05.78N,143-31.65E,31,1.752,32.0734
812,2018/4/5,13:31,42-06.11N,143-31.91E,31,1.764,32.0756
813,2018/4/5,13:32,42-06.43N,143-32.17E,31,1.814,32.0765
814,2018/4/5,13:33,42-06.76N,143-32.44E,31,1.938,32.0566
815,2018/4/5,13:34,42-07.08N,143-32.70E,31,2.017,31.9962
816,2018/4/5,13:35,42-07.40N,143-32.96E,30,2.104,31.954
817,2018/4/5,13:36,42-07.73N,143-33.22E,31,2.158,31.9222
818,2018/4/5,13:37,42-08.05N,143-33.48E,31,2.19,31.9107
819,2018/4/5,13:38,42-08.38N,143-33.75E,31,2.214,31.9202
820,2018/4/5,13:39,42-08.70N,143-34.02E,31,2.205,31.9292
821,2018/4/5,13:40,42-09.01N,143-34.28E,31,2.245,31.9624
822,2018/4/5,13:41,42-09.33N,143-34.54E,31,2.226,31.9677
823,2018/4/5,13:42,42-09.66N,143-34.81E,31,2.216,31.9888
824,2018/4/5,13:43,42-09.98N,143-35.07E,31,2.155,32
825,2018/4/5,13:44,42-10.31N,143-35.34E,30,2.046,32.0278
826,2018/4/5,13:45,42-10.62N,143-35.60E,31,2.109,32.066
827,2018/4/5,13:46,42-10.94N,143-35.86E,31,2.052,32.0587
828,2018/4/5,13:47,42-11.27N,143-36.12E,31,1.949,32.0568
829,2018/4/5,13:48,42-11.59N,143-36.38E,31,1.986,32.08
830,2018/4/5,13:49,42-11.91N,143-36.64E,31,2.008,32.0695
831,2018/4/5,13:50,42-12.23N,143-36.91E,30,1.997,32.044
832,2018/4/5,13:51,42-12.55N,143-37.16E,30,2.06,32.035
833,2018/4/5,13:52,42-12.87N,143-37.42E,31,2.126,32.0228
834,2018/4/5,13:53,42-13.19N,143-37.68E,31,2.159,31.9906
835,2018/4/5,13:54,42-13.50N,143-37.94E,32,2.183,31.9642
836,2018/4/5,13:55,42-13.82N,143-38.22E,32,2.247,31.9438
837,2018/4/5,13:56,42-14.13N,143-38.48E,33,2.293,31.9216
838,2018/4/5,13:57,42-14.44N,143-38.76E,33,2.288,31.8882
839,2018/4/5,13:58,42-14.76N,143-39.03E,32,2.304,31.8667
840,2018/4/5,13:59,42-15.07N,143-39.31E,33,2.299,31.85
841,2018/4/5,14:00,42-15.37N,143-39.57E,33,2.244,31.8353
842,2018/4/5,14:01,42-15.67N,143-39.86E,35,2.294,31.8415
843,2018/4/5,14:02,42-15.97N,143-40.15E,36,2.335,31.8316
844,2018/4/5,14:03,42-16.26N,143-40.44E,37,2.343,31.8416
845,2018/4/5,14:04,42-16.55N,143-40.76E,38,2.307,31.8257
846,2018/4/5,14:05,42-16.83N,143-41.07E,39,2.312,31.8384
847,2018/4/5,14:06,42-17.11N,143-41.38E,39,2.263,31.8589
848,2018/4/5,14:07,42-17.40N,143-41.69E,38,2.232,31.8825
849,2018/4/5,14:08,42-17.68N,143-42.01E,39,2.175,31.9415
850,2018/4/5,14:09,42-17.98N,143-42.33E,39,2.196,31.9893
851,2018/4/5,14:10,42-18.26N,143-42.64E,38,2.225,31.9914
852,2018/4/5,14:11,42-18.55N,143-42.94E,39,2.127,32.013
853,2018/4/5,14:12,42-18.83N,143-43.26E,38,2.098,32.0451
854,2018/4/5,14:13,42-19.13N,143-43.54E,34,2.202,32.0658
855,2018/4/5,14:14,42-19.43N,143-43.81E,33,2.184,32.1005
856,2018/4/5,14:15,42-19.74N,143-44.09E,33,2.208,32.1046
857,2018/4/5,14:16,42-20.05N,143-44.36E,33,2.099,32.13
858,2018/4/5,14:17,42-20.35N,143-44.63E,33,2.014,32.2471
859,2018/4/5,14:18,42-20.66N,143-44.90E,32,2.011,32.369
860,2018/4/5,14:19,42-20.98N,143-45.17E,32,1.997,32.44
861,2018/4/5,14:20,42-21.29N,143-45.45E,32,2.055,32.525
862,2018/4/5,14:21,42-21.61N,143-45.72E,33,1.953,32.5509
863,2018/4/5,14:22,42-21.92N,143-45.99E,32,1.959,32.556
864,2018/4/5,14:23,42-22.23N,143-46.26E,33,2.042,32.5556
865,2018/4/5,14:24,42-22.55N,143-46.54E,33,2.146,32.5572
866,2018/4/5,14:25,42-22.87N,143-46.82E,32,2.157,32.562
867,2018/4/5,14:26,42-23.18N,143-47.09E,32,2.032,32.5689
868,2018/4/5,14:27,42-23.49N,143-47.36E,32,2.041,32.5932
869,2018/4/5,14:28,42-23.80N,143-47.63E,32,2.045,32.6096
870,2018/4/5,14:29,42-24.10N,143-47.89E,32,2.08,32.5327
871,2018/4/5,14:30,42-24.41N,143-48.16E,33,2.067,32.4532
872,2018/4/5,14:31,42-24.72N,143-48.43E,33,2.082,32.4219
873,2018/4/5,14:32,42-25.03N,143-48.70E,33,2.081,32.4058
874,2018/4/5,14:33,42-25.33N,143-48.96E,32,2.003,32.3702
875,2018/4/5,14:34,42-25.64N,143-49.23E,33,1.869,32.323
876,2018/4/5,14:35,42-25.94N,143-49.49E,32,1.859,32.3098
877,2018/4/5,14:36,42-26.25N,143-49.76E,33,1.916,32.2797
878,2018/4/5,14:37,42-26.55N,143-50.03E,33,1.914,32.2634
879,2018/4/5,14:38,42-26.86N,143-50.30E,33,1.871,32.248
880,2018/4/5,14:39,42-27.17N,143-50.57E,32,1.887,32.2376
881,2018/4/5,14:40,42-27.48N,143-50.83E,31,1.903,32.2313
882,2018/4/5,14:41,42-27.79N,143-51.08E,30,1.862,32.226
883,2018/4/5,14:42,42-28.10N,143-51.33E,30,1.855,32.2132
884,2018/4/5,14:43,42-28.42N,143-51.58E,31,1.854,32.1944
885,2018/4/5,14:44,42-28.73N,143-51.84E,30,1.845,32.1837
886,2018/4/5,14:45,42-29.04N,143-52.09E,30,1.818,32.1762
887,2018/4/5,14:46,42-29.35N,143-52.34E,31,1.834,32.171
888,2018/4/5,14:47,42-29.66N,143-52.61E,32,1.826,32.1687
889,2018/4/5,14:48,42-29.98N,143-52.88E,32,1.844,32.169
890,2018/4/5,14:49,42-30.28N,143-53.14E,33,1.855,32.1684
891,2018/4/5,14:50,42-30.59N,143-53.41E,32,1.772,32.1706
892,2018/4/5,14:51,42-30.90N,143-53.69E,33,1.653,32.1862
893,2018/4/5,14:52,42-31.21N,143-53.97E,33,1.501,32.2228
894,2018/4/5,14:53,42-31.52N,143-54.24E,33,1.437,32.2813
895,2018/4/5,14:54,42-31.82N,143-54.51E,32,1.461,32.3378
896,2018/4/5,14:55,42-32.13N,143-54.77E,32,1.436,32.3774
897,2018/4/5,14:56,42-32.45N,143-55.05E,32,1.495,32.4119
898,2018/4/5,14:57,42-32.76N,143-55.30E,30,1.524,32.4285
899,2018/4/5,14:58,42-33.08N,143-55.54E,29,1.607,32.4066
900,2018/4/5,14:59,42-33.40N,143-55.79E,29,1.581,32.3451
901,2018/4/5,15:00,42-33.72N,143-56.03E,29,1.561,32.3204
902,2018/4/5,15:01,42-34.05N,143-56.28E,29,1.605,32.3702
903,2018/4/5,15:02,42-34.36N,143-56.52E,30,1.633,32.4032
904,2018/4/5,15:03,42-34.68N,143-56.77E,29,1.628,32.3793
905,2018/4/5,15:04,42-35.00N,143-57.02E,30,1.672,32.4009
906,2018/4/5,15:05,42-35.32N,143-57.26E,28,1.735,32.3918
907,2018/4/5,15:06,42-35.63N,143-57.51E,30,1.739,32.3549
908,2018/4/5,15:07,42-35.95N,143-57.75E,29,1.721,32.3362
909,2018/4/5,15:08,42-36.28N,143-58.00E,29,1.683,32.3593
910,2018/4/5,15:09,42-36.60N,143-58.25E,30,1.69,32.4079
911,2018/4/5,15:10,42-36.91N,143-58.50E,30,1.556,32.4605
912,2018/4/5,15:11,42-37.23N,143-58.74E,29,1.539,32.4572
913,2018/4/5,15:12,42-37.55N,143-58.99E,29,1.638,32.4502
914,2018/4/5,15:13,42-37.88N,143-59.23E,28,1.634,32.4801
915,2018/4/5,15:14,42-38.20N,143-59.47E,28,1.417,32.4909
916,2018/4/5,15:15,42-38.53N,143-59.71E,29,1.318,32.4507
917,2018/4/5,15:16,42-38.86N,143-59.96E,28,1.258,32.4031
918,2018/4/5,15:17,42-39.18N,144-00.20E,29,1.133,32.3749
919,2018/4/5,15:18,42-39.50N,144-00.44E,29,1.103,32.3519
920,2018/4/5,15:19,42-39.83N,144-00.68E,28,1.082,32.3391
921,2018/4/5,15:20,42-40.16N,144-00.93E,29,1.091,32.3344
922,2018/4/5,15:21,42-40.48N,144-01.17E,29,1.131,32.3318
923,2018/4/5,15:22,42-40.81N,144-01.41E,28,1.146,32.3295
924,2018/4/5,15:23,42-41.13N,144-01.66E,29,1.157,32.3291
925,2018/4/5,15:24,42-41.46N,144-01.90E,29,1.182,32.3308
926,2018/4/5,15:25,42-41.78N,144-02.15E,29,1.184,32.338
927,2018/4/5,15:26,42-42.11N,144-02.40E,29,1.157,32.3422
928,2018/4/5,15:27,42-42.44N,144-02.65E,29,1.129,32.3429
929,2018/4/5,15:28,42-42.77N,144-02.89E,29,1.108,32.3425
930,2018/4/5,15:29,42-43.09N,144-03.14E,29,1.095,32.3422
931,2018/4/5,15:30,42-43.42N,144-03.39E,29,1.056,32.3421
932,2018/4/5,15:31,42-43.74N,144-03.64E,29,1.032,32.3429
933,2018/4/5,15:32,42-44.08N,144-03.89E,29,1.019,32.3447
934,2018/4/5,15:33,42-44.40N,144-04.14E,29,1.018,32.3452
935,2018/4/5,15:34,42-44.73N,144-04.39E,29,1.04,32.3442
936,2018/4/5,15:35,42-45.05N,144-04.64E,29,1.408,32.3366
937,2018/4/5,15:36,42-45.37N,144-04.89E,29,1.564,32.2512
938,2018/4/5,15:37,42-45.70N,144-05.13E,29,1.757,32.1865
939,2018/4/5,15:38,42-46.02N,144-05.38E,28,1.853,32.1035
940,2018/4/5,15:39,42-46.35N,144-05.62E,28,2.003,31.9961
941,2018/4/5,15:40,42-46.67N,144-05.87E,29,2.079,31.9129